GEFSSE_500_meanwind_324.txt.gz
Wind_Speed
5 5 5 5 5 5 6 6 6 6 6 6 6 6 6 6 6 6 6 6 6 5 5 5 4 4 4 4 3 4 4 4 4 4 4 4 4 3 3 3 3 3 3
5 5 5 6 6 5 5 6 6 6 6 6 6 6 6 6 6 7 7 6 6 5 5 5 5 4 4 4 3 3 4 4 4 4 4 4 3 3 2 2 2 2 3
4 5 5 6 6 6 5 5 6 6 6 6 6 6 6 6 7 6 6 6 6 6 6 5 5 4 4 3 2 3 4 4 4 4 3 4 3 3 2 1 1 2 2
5 5 6 6 6 6 6 5 5 5 6 6 6 6 6 6 7 6 5 6 6 6 6 5 5 4 3 3 3 4 5 5 4 4 3 3 3 3 2 2 1 1 1
5 6 7 6 6 6 6 6 5 5 5 6 6 6 6 7 6 5 5 5 5 5 5 4 4 3 3 3 3 4 5 5 4 4 3 2 2 2 2 2 2 1 1
5 7 7 7 7 6 6 6 5 5 6 6 6 6 6 6 6 5 5 5 5 4 4 3 4 4 3 4 3 3 4 4 4 4 3 3 2 2 2 2 3 2 2
5 5 6 6 6 5 6 6 5 5 6 7 7 6 6 5 5 5 4 4 4 4 3 3 3 3 3 4 3 4 4 4 4 4 3 3 3 3 3 3 2 2 2
4 4 5 6 6 5 5 6 6 6 7 6 6 6 6 5 5 4 4 3 3 3 3 3 3 3 3 4 4 4 5 5 5 4 4 4 4 4 3 3 2 2 3
3 4 4 5 5 5 5 7 7 7 7 7 7 6 6 5 4 4 4 3 3 3 3 3 3 3 3 4 4 5 4 5 5 4 4 4 5 5 4 3 3 3 4
3 3 4 4 4 4 5 6 6 6 6 7 6 6 5 4 3 3 3 4 4 4 3 3 3 4 4 4 5 5 5 5 5 5 4 4 5 5 5 4 4 4 4
3 3 3 3 3 3 4 4 5 5 5 5 5 4 4 3 3 3 3 4 4 4 3 3 3 3 4 5 5 5 5 5 5 4 5 4 5 5 5 5 5 5 5
3 3 2 2 3 3 4 4 4 4 4 3 3 3 3 3 3 3 2 2 3 3 3 3 3 3 3 4 4 5 5 5 4 4 5 5 5 5 5 6 6 6 5
4 3 3 3 3 3 4 3 3 2 2 2 2 2 3 3 3 3 2 2 3 3 4 4 4 4 4 4 4 5 6 5 5 5 5 5 6 5 5 6 6 6 6
4 3 3 2 2 3 3 3 2 2 2 2 2 3 2 3 3 3 3 3 3 4 4 5 5 5 5 4 5 6 6 6 6 6 6 6 6 6 6 7 7 7 8
4 3 2 2 3 3 2 2 2 2 2 2 3 2 2 3 3 3 4 4 4 5 5 6 6 6 5 5 6 7 7 7 7 7 7 7 6 7 7 8 8 8 8
4 4 4 3 2 2 3 3 2 2 2 2 2 3 2 3 3 4 4 4 4 5 6 6 6 5 5 6 7 8 8 8 8 8 8 7 7 7 7 8 8 8 8
6 5 4 3 3 3 2 3 2 2 3 3 3 3 4 3 4 4 4 4 5 6 6 6 5 5 6 7 7 8 8 8 8 8 8 8 8 8 9 8 8 8 9
7 5 4 3 3 3 3 3 3 3 4 4 4 4 4 4 4 4 5 5 6 6 6 6 6 6 7 7 7 8 9 9 8 9 9 9 9 9 9 10 10 10 10
7 6 5 4 4 4 3 3 3 4 4 4 4 4 4 4 5 4 5 6 7 7 7 6 5 6 7 7 8 9 9 9 9 10 10 10 10 10 10 11 11 11 11
7 6 5 5 4 4 4 4 5 5 4 4 5 5 5 5 5 5 5 7 7 6 6 7 7 8 9 9 9 10 10 10 10 11 11 11 12 12 11 12 12 12 12
6 6 6 5 5 5 5 5 6 6 6 6 5 5 5 5 5 5 6 7 7 7 7 8 8 9 10 10 10 10 11 11 11 12 12 12 12 12 12 12 13 14 13
7 6 6 6 6 6 6 6 6 6 7 7 6 6 6 6 6 6 7 7 8 8 9 9 9 10 11 11 11 12 12 12 12 13 13 13 13 13 13 14 14 15 15
7 7 7 7 7 7 7 8 8 7 7 7 7 7 7 6 7 7 7 8 9 9 9 10 11 12 12 12 12 13 13 13 14 14 14 15 14 14 14 14 15 16 15
8 7 7 7 7 7 8 8 9 8 7 7 7 8 7 6 6 7 7 8 9 10 10 11 11 11 11 12 12 13 14 14 14 14 14 14 14 15 15 15 15 15 15
8 7 7 8 8 9 9 9 9 9 8 7 7 7 8 7 7 8 8 9 10 11 11 12 11 12 12 12 13 14 14 15 15 15 15 15 15 15 16 16 15 15 16
9 8 8 9 9 9 9 10 10 9 9 9 8 8 8 8 9 9 10 10 11 11 12 12 13 13 13 13 14 15 15 16 17 16 16 16 15 15 16 16 16 16 15

GEFSSE_500_meanwind_330.txt.gz
Wind_Speed
7 7 7 6 7 7 7 7 7 7 7 7 7 6 6 5 5 5 5 5 5 4 5 5 5 5 5 5 4 4 4 4 5 4 4 4 4 4 3 3 4 4 3
7 7 7 7 7 7 7 7 7 7 7 6 6 6 5 5 4 4 5 4 4 5 5 6 5 5 5 5 5 4 5 5 4 4 4 4 4 4 3 3 3 2 3
8 8 8 8 8 7 7 7 7 6 6 6 6 6 5 5 5 4 4 4 5 5 5 5 5 5 5 5 5 4 4 4 4 4 4 3 3 4 3 3 2 2 2
9 9 9 9 8 8 7 7 6 6 6 7 7 6 6 5 5 5 5 5 5 5 5 4 4 4 4 5 5 5 5 4 4 4 4 3 3 3 2 2 1 1 1
10 10 10 9 8 8 7 7 7 7 7 7 6 6 5 5 5 5 5 5 4 4 4 4 4 4 4 5 5 4 4 4 3 3 3 3 2 2 2 1 1 0 0
10 10 9 9 9 9 8 8 8 8 8 7 6 5 5 5 5 5 5 4 3 3 3 3 3 3 4 4 5 4 4 4 4 3 3 2 2 2 1 1 1 1 1
9 9 9 9 8 8 8 8 8 8 7 7 6 5 5 5 5 4 4 4 4 4 3 3 3 3 3 4 4 4 3 3 3 3 2 2 2 1 1 1 2 1 1
8 8 8 8 7 8 9 8 8 8 7 6 6 5 5 5 5 4 4 4 4 4 3 3 3 3 3 3 3 3 4 3 3 3 3 3 2 2 1 1 2 1 1
7 7 8 7 7 7 7 8 8 8 7 6 5 5 5 5 5 4 4 4 3 4 4 4 3 3 3 3 3 3 4 4 3 3 3 3 2 1 1 1 1 0 1
7 7 7 7 7 7 7 8 7 7 6 5 5 5 5 5 4 4 4 4 3 3 3 4 4 3 3 3 3 3 4 3 2 2 2 2 2 1 1 0 1 1 1
7 7 7 7 6 6 6 7 6 6 5 4 4 4 5 4 4 4 4 4 4 4 4 4 4 4 3 3 3 4 4 4 3 3 3 2 2 1 1 2 2 2 2
7 7 6 7 6 6 6 5 5 4 5 4 4 4 4 4 4 4 4 4 4 4 4 3 4 3 4 3 4 5 5 4 3 3 3 2 2 2 2 2 2 2 2
7 6 6 6 6 7 6 5 5 5 4 4 4 3 3 3 3 3 3 3 3 3 3 4 4 4 4 4 4 4 4 4 3 3 3 3 3 3 2 3 3 2 3
7 6 6 7 6 6 5 5 5 4 4 4 3 3 3 2 2 2 2 2 2 3 3 3 4 4 3 3 4 4 4 3 4 4 3 4 4 4 4 4 4 4 5
8 7 7 7 6 5 5 5 5 5 5 5 4 3 3 3 3 2 2 2 2 2 3 3 4 4 4 4 4 4 4 4 4 4 4 5 5 5 5 5 5 5 6
10 9 8 7 6 5 5 5 5 4 4 3 3 2 2 2 2 2 2 1 2 2 3 4 4 5 5 5 4 4 4 4 5 5 5 5 6 6 6 6 6 7 7
10 10 9 8 6 5 5 5 5 4 3 3 3 2 2 2 2 2 2 2 2 3 4 4 4 5 5 5 5 5 5 5 6 6 6 6 7 7 7 7 7 8 8
9 9 9 8 7 6 6 5 5 5 5 4 4 3 2 2 2 2 2 2 2 3 4 4 5 5 6 6 6 6 7 7 7 7 7 8 8 8 8 9 9 9 9
8 8 8 7 7 6 6 6 6 5 5 4 3 2 2 2 2 2 1 2 3 3 4 4 5 6 6 6 7 7 8 8 8 8 8 9 9 9 9 9 10 10 9
7 7 7 7 7 6 6 6 5 5 5 4 3 3 3 2 2 2 2 3 3 3 4 4 5 6 6 6 7 8 9 9 8 9 9 10 10 10 11 11 11 10 11
7 7 7 7 6 6 5 5 5 5 5 4 3 3 3 3 3 3 3 4 4 4 4 5 6 7 7 7 8 9 9 9 9 11 10 10 11 11 12 12 12 12 12
7 7 6 6 6 6 6 5 5 5 4 4 4 4 3 3 3 3 4 5 5 5 5 6 6 7 8 9 9 9 9 9 10 10 10 11 11 11 11 12 12 12 12
6 5 6 6 6 6 6 5 5 5 4 4 3 3 3 3 3 4 5 5 6 6 6 7 7 9 9 10 10 10 10 10 10 11 11 11 11 12 12 12 12 12 12
5 4 5 5 6 6 5 6 5 5 4 4 4 4 4 4 4 5 6 6 7 7 7 8 9 10 10 11 12 12 11 10 10 10 11 12 11 12 12 12 12 12 12
5 5 5 5 5 5 6 5 5 4 4 4 4 4 4 5 5 6 7 7 8 8 8 9 10 11 11 12 13 13 12 12 11 11 11 11 12 12 13 13 13 13 13
5 5 5 5 5 5 5 5 5 4 4 4 4 5 5 6 7 7 8 9 9 10 11 11 12 12 13 13 13 12 13 12 11 12 12 12 12 13 14 14 14 14 14

GEFSSE_500_meanwind_336.txt.gz
Wind_Speed
8 8 8 8 8 8 9 9 9 9 9 9 9 9 8 8 7 7 6 6 6 6 6 6 5 5 5 5 5 5 4 4 2 2 2 2 2 2 2 2 1 1 2
9 9 8 8 8 8 8 9 8 8 8 9 9 9 9 9 8 7 6 6 6 6 7 7 7 6 5 6 6 5 5 4 4 2 2 2 2 1 1 1 1 1 1
9 9 9 9 9 8 8 9 8 9 8 9 9 9 8 8 8 7 7 7 6 6 7 6 6 6 6 6 5 6 6 5 5 4 2 2 2 2 1 1 1 1 1
9 9 9 9 9 9 9 10 9 9 8 8 8 8 8 8 8 8 8 7 7 7 6 6 6 5 5 5 5 5 5 5 5 3 3 2 1 1 1 1 1 1 1
9 9 9 9 9 9 10 10 10 9 9 8 8 8 8 8 8 8 7 7 7 6 6 6 5 4 4 5 5 4 4 4 3 3 3 1 1 1 1 1 1 1 1
9 9 9 9 9 10 10 10 10 10 9 8 8 7 8 7 8 7 7 7 6 5 5 4 4 3 4 4 4 3 3 3 3 2 2 2 0 1 1 1 1 1 1
9 10 9 9 9 9 9 9 10 9 9 8 8 7 7 7 7 7 7 6 6 6 5 4 4 3 3 4 3 3 3 2 2 2 1 2 1 1 1 1 1 1 2
9 10 9 9 8 8 9 9 9 8 8 8 7 7 6 6 6 6 6 6 6 5 5 4 4 3 3 2 2 2 2 2 2 2 2 2 2 1 1 1 1 1 2
9 9 8 8 8 8 9 9 8 7 7 6 6 6 6 6 5 5 5 6 5 5 4 4 4 3 3 2 2 3 2 2 2 2 2 2 2 1 2 2 2 2 3
8 8 8 7 7 7 8 7 6 6 5 5 5 5 5 5 5 5 5 5 5 4 4 4 3 4 4 3 2 3 3 2 2 3 3 2 2 2 3 3 3 3 4
7 7 7 7 7 7 6 5 5 5 5 4 4 5 4 4 4 4 4 4 4 4 4 4 3 4 4 3 3 3 3 3 3 3 3 3 3 3 4 4 4 5 5
8 8 9 8 8 7 6 5 5 4 5 4 4 3 3 3 3 3 3 3 3 3 3 3 3 3 3 3 3 4 3 3 4 4 4 4 4 4 5 4 5 5 6
8 8 8 7 7 6 6 6 6 5 5 4 3 3 3 3 3 2 2 2 2 2 2 3 3 3 3 3 4 4 4 4 4 4 4 5 5 6 6 6 6 6 6
8 8 8 7 7 6 6 6 5 5 5 4 3 3 3 2 2 2 2 2 2 2 2 3 4 4 4 5 5 5 5 5 5 5 5 6 6 6 6 6 6 6 6
8 8 8 7 7 6 5 4 4 4 4 3 3 2 2 2 2 2 1 2 2 3 3 4 5 5 5 7 6 6 7 7 6 6 7 7 7 7 7 7 7 7 7
8 7 7 7 6 5 4 4 3 3 2 2 1 1 1 2 3 3 2 2 3 3 4 5 5 6 6 7 7 7 8 8 8 8 8 8 8 8 8 8 8 8 9
8 7 6 6 5 5 4 3 2 1 1 1 2 2 2 2 3 3 3 3 3 4 4 4 5 6 7 7 7 8 8 8 8 8 8 9 9 9 9 9 9 9 9
7 6 6 5 5 4 3 2 2 1 1 1 1 1 2 2 2 3 3 3 4 5 5 5 5 6 6 7 8 8 8 9 9 9 9 10 11 11 11 11 11 11 11
6 6 5 5 4 3 3 3 3 2 1 1 2 2 2 3 3 3 3 4 4 4 5 6 6 7 8 8 8 8 9 9 10 10 11 11 12 12 12 12 12 13 12
5 5 5 5 4 4 3 3 4 2 2 2 2 2 2 2 3 3 3 3 4 5 6 7 7 8 8 8 8 9 9 10 10 10 11 12 12 13 13 13 13 13 13
4 4 4 4 4 3 3 3 3 3 3 3 2 2 2 2 3 3 4 4 5 6 7 8 8 9 9 9 10 10 10 10 10 10 11 12 12 12 13 13 13 13 14
4 4 4 4 4 3 2 3 3 4 4 3 2 3 3 3 3 3 4 4 6 7 8 8 9 10 10 10 11 11 12 11 11 11 11 12 12 12 12 13 13 13 14
3 2 2 2 3 2 2 2 3 4 4 4 3 4 4 4 4 4 5 5 6 8 9 9 10 11 11 11 12 12 11 11 12 13 13 13 13 13 13 14 14 14 14
2 2 2 2 2 3 3 3 4 4 4 4 4 5 5 5 5 6 6 7 8 9 10 11 11 12 12 13 13 13 13 13 14 14 14 13 13 13 14 14 14 14 15
4 3 4 4 4 4 5 5 6 5 5 5 6 6 6 6 7 8 8 9 10 10 11 12 13 13 14 14 14 14 14 14 15 15 14 14 14 14 14 14 15 15 15
5 4 4 4 4 5 6 7 7 7 7 7 7 7 7 8 9 10 11 11 12 12 13 14 14 15 15 16 16 16 16 16 16 16 15 15 15 15 15 15 16 16 16

GEFSSE_500_meanwind_342.txt.gz
Wind_Speed
8 8 8 8 9 8 9 9 9 10 9 10 10 10 10 10 9 8 8 7 8 8 8 8 7 6 6 6 4 4 3 2 2 2 2 3 2 2 2 2 2 2 2
8 8 8 9 8 8 9 9 9 10 10 10 10 10 10 10 9 8 8 8 8 8 8 8 8 6 6 5 5 5 5 4 3 2 2 2 1 1 1 1 1 2 2
8 8 9 9 9 9 9 9 9 9 9 9 9 9 9 9 8 8 7 8 8 8 8 8 7 7 6 6 5 5 5 4 4 3 2 2 1 1 0 1 1 1 2
8 8 8 8 8 8 9 9 9 9 8 8 9 10 9 8 8 7 7 7 8 8 8 8 6 6 5 4 4 4 4 4 4 4 3 2 1 1 1 1 1 1 2
7 7 8 8 8 8 8 8 9 9 9 9 9 9 9 8 8 7 7 7 7 7 7 7 5 5 4 4 3 3 3 4 4 3 3 2 1 0 0 1 1 1 2
7 7 8 8 8 8 8 8 8 8 8 8 8 8 8 8 7 7 7 6 6 6 6 6 5 4 4 3 3 3 3 3 3 2 2 1 1 1 1 1 1 1 2
8 8 8 8 8 8 9 9 7 7 7 7 7 7 8 7 7 6 7 6 6 6 5 5 4 3 3 2 3 3 3 3 3 2 2 2 2 2 1 1 2 2 2
7 8 7 7 8 8 8 8 8 7 7 6 7 7 7 7 6 6 7 6 6 5 5 4 4 3 3 3 3 3 4 4 3 2 2 2 3 2 2 2 2 2 2
7 8 7 7 8 8 8 8 7 6 6 6 6 6 6 6 5 5 5 5 5 4 4 4 4 3 3 2 3 3 3 4 4 3 3 3 3 3 2 2 2 3 4
7 7 7 7 8 8 8 7 6 5 5 5 5 4 4 4 4 4 5 5 4 4 4 4 4 3 3 3 3 3 3 4 3 3 3 3 3 3 3 3 4 4 5
6 6 6 7 7 7 6 5 5 5 5 4 4 4 4 3 3 3 4 4 3 3 3 3 3 3 3 3 3 3 4 4 3 4 3 3 4 4 4 4 5 5 5
6 6 6 7 6 6 5 5 4 4 4 4 3 3 4 3 2 2 3 2 2 2 2 2 2 2 2 3 3 4 4 4 4 5 4 4 4 4 5 5 5 6 6
6 6 6 6 5 5 5 5 5 5 5 4 4 3 3 3 3 3 2 2 2 2 2 2 3 3 3 4 4 5 4 4 5 5 5 5 5 5 6 6 6 7 7
6 6 6 6 5 4 5 5 5 5 4 3 3 3 3 3 3 2 2 2 2 2 3 3 4 4 4 5 5 5 5 5 6 6 5 5 6 6 6 7 7 8 8
5 5 5 5 5 4 4 3 3 4 4 3 2 2 2 3 3 2 1 2 2 3 4 4 4 5 4 5 5 6 6 6 7 7 6 6 7 7 7 8 8 9 9
4 4 4 4 4 4 3 2 3 3 2 2 2 2 2 2 2 2 3 3 3 4 4 5 4 4 5 6 6 7 7 7 8 8 7 7 8 8 9 9 10 10 10
4 4 3 3 3 3 2 2 2 1 1 1 1 1 1 1 2 2 3 4 4 5 4 4 4 5 5 6 7 7 7 8 8 9 8 8 9 10 10 10 11 11 11
3 3 3 2 2 2 2 1 1 1 1 1 1 1 1 2 2 2 3 4 5 5 4 4 5 6 6 6 8 8 8 8 8 9 9 9 10 10 10 10 10 11 11
2 2 2 1 2 2 2 2 2 2 1 2 2 2 2 2 2 2 3 4 5 5 4 5 6 6 7 8 8 9 9 9 9 10 10 10 10 10 10 10 10 11 11
2 2 2 1 2 2 2 2 2 2 2 2 2 2 2 2 2 2 3 4 5 5 5 5 6 7 8 9 9 10 10 11 11 10 11 11 11 11 11 11 11 11 12
3 2 2 1 1 1 1 1 2 3 3 3 2 2 2 3 3 4 4 5 5 5 6 6 7 8 9 10 11 11 12 12 13 12 11 12 12 11 12 12 12 12 12
3 3 2 2 3 2 3 3 3 3 4 3 3 4 4 4 4 4 5 6 6 6 6 7 8 9 11 11 12 12 13 13 14 13 12 13 13 12 12 12 12 12 12
4 4 4 4 4 4 4 5 5 5 5 5 5 5 4 5 5 5 5 6 7 8 8 9 10 11 12 13 13 14 13 13 13 13 13 13 13 13 13 13 13 12 12
5 6 6 6 5 5 6 6 6 7 7 7 6 6 6 6 6 6 7 8 8 9 9 10 11 12 13 13 14 14 13 13 13 13 13 13 13 13 13 13 13 13 13
7 7 7 7 7 7 7 8 8 8 8 9 8 8 8 8 8 9 9 10 11 11 11 12 13 13 13 13 14 14 13 14 14 14 14 14 14 14 14 14 14 14 15
9 9 9 9 9 9 10 10 10 11 11 11 11 11 11 11 11 11 11 12 13 13 14 14 14 15 15 15 15 14 14 16 16 16 15 15 15 15 15 16 16 16 16

GEFSSE_500_meanwind_348.txt.gz
Wind_Speed
5 5 5 5 5 5 5 5 6 6 7 6 6 5 5 5 5 5 5 5 6 6 7 7 7 5 5 6 5 5 5 5 4 4 4 4 4 3 3 2 2 1 0
5 4 5 5 5 5 5 6 5 6 7 6 6 5 5 5 5 5 5 5 6 7 7 6 6 6 6 6 5 5 5 5 5 4 4 3 4 3 3 3 3 2 1
4 4 5 5 5 4 6 6 5 6 6 6 6 6 5 6 6 5 6 6 7 7 7 6 6 6 6 6 5 5 5 5 5 4 4 4 4 3 3 3 3 2 1
4 3 4 5 5 5 6 6 6 6 6 5 5 5 5 6 6 5 6 6 6 6 7 7 6 6 5 5 5 5 5 5 5 4 4 5 4 4 3 3 2 2 2
4 4 5 5 5 5 5 5 6 6 5 5 5 5 5 5 5 5 5 5 6 6 6 5 5 5 5 5 5 5 5 5 5 5 5 4 4 3 3 3 2 2 2
4 4 4 4 5 5 5 5 5 5 4 4 4 5 5 5 5 4 4 4 5 5 5 5 5 5 5 5 5 5 5 5 5 5 4 4 3 3 4 3 2 1 2
4 4 4 5 5 5 5 4 4 4 4 3 4 4 5 4 4 4 3 4 4 4 4 4 4 6 6 6 5 5 5 5 5 4 4 3 3 4 4 3 2 2 2
4 4 5 5 5 4 4 4 4 4 4 3 3 4 4 4 4 4 4 4 5 4 4 3 4 4 5 5 5 5 5 5 4 5 4 3 4 4 4 4 3 2 3
4 5 5 5 4 4 3 3 4 4 3 3 3 3 3 4 4 4 4 4 4 4 4 3 3 3 4 5 5 5 5 5 4 5 4 4 4 4 4 4 3 3 4
5 5 5 4 4 3 3 3 3 3 3 3 3 3 3 3 3 3 3 3 3 3 4 4 3 4 4 5 5 6 6 5 4 5 5 5 5 4 3 4 4 3 4
5 5 5 5 4 3 2 3 2 2 2 2 3 3 3 3 3 3 3 3 3 3 4 4 4 4 4 5 5 6 6 6 5 5 5 5 5 5 4 5 5 5 5
5 5 5 4 4 4 3 3 3 2 2 2 2 3 3 3 3 3 3 4 4 4 3 3 4 4 5 5 5 6 6 5 5 6 6 6 6 6 6 6 6 5 6
5 5 5 4 4 4 3 3 2 2 2 2 3 3 3 3 3 2 3 4 4 4 4 4 4 4 5 5 6 6 5 6 6 6 7 6 6 6 6 6 6 6 7
6 5 5 5 5 4 3 3 3 3 3 2 3 3 3 3 3 3 3 4 4 4 4 4 4 4 5 6 6 6 6 7 7 7 7 7 7 7 7 6 7 7 7
6 5 5 6 5 4 4 4 3 3 3 3 3 4 3 3 4 4 4 4 4 5 5 5 4 4 5 5 6 7 7 8 7 7 8 7 7 7 7 7 8 8 8
6 5 5 5 5 4 4 4 4 3 3 4 4 4 4 4 5 5 5 5 5 5 5 5 5 5 6 6 7 7 8 8 8 8 8 8 8 7 7 8 8 7 8
7 6 5 5 5 6 5 4 3 3 4 3 3 4 4 5 5 6 6 5 6 5 5 5 5 6 7 7 7 7 7 8 8 9 9 8 8 7 7 8 8 8 7
6 6 6 6 6 6 6 5 4 4 4 4 4 4 4 5 5 6 6 6 6 6 5 5 6 7 7 7 7 8 8 9 9 9 9 9 9 8 8 9 8 8 8
6 6 6 6 6 7 6 5 5 5 5 5 5 5 5 5 6 6 7 6 6 6 6 6 7 8 8 8 9 9 10 9 9 9 9 10 10 10 10 10 9 9 9
7 6 6 6 6 7 6 6 6 5 5 5 6 6 6 6 7 7 7 7 7 7 7 8 8 9 9 10 10 11 11 11 11 10 10 11 11 11 10 10 10 10 10
7 7 7 7 7 7 8 8 7 6 6 6 7 7 8 8 8 8 8 8 8 9 9 10 10 10 10 10 11 12 12 12 12 12 12 12 11 11 10 10 10 10 10
8 8 8 8 8 8 9 9 9 8 7 7 8 8 8 8 8 9 9 9 10 10 11 11 11 12 12 12 12 13 13 13 13 13 12 12 12 11 11 11 11 11 10
9 8 8 8 8 9 10 10 10 10 9 8 9 9 9 9 10 10 10 11 12 11 12 12 13 13 14 14 14 14 14 14 14 14 13 13 13 12 12 12 12 13 13
10 9 9 9 10 10 11 11 12 12 11 10 10 10 10 11 11 12 12 12 13 13 13 14 14 15 15 15 16 16 16 16 16 15 15 14 13 13 13 13 13 13 13
10 10 10 11 11 11 12 12 13 13 12 12 12 12 12 12 12 13 13 14 14 15 15 16 16 16 17 17 18 18 18 18 17 17 16 16 15 15 15 15 14 14 15
11 11 11 12 12 12 12 13 14 14 14 14 14 14 14 14 14 14 14 15 15 16 17 17 17 18 18 18 19 19 20 19 19 19 18 18 18 18 17 17 16 16 17